When you browse on this site, cookies collect data to enhance your experience and personalize the content and advertising you see.
Visit our Privacy Policy to learn more. By continuing to use the site, you agree to this use of cookies and data.
  • In United Kingdom
  • List of Countries
  • For 7 days
  • Water Temperature
  • Satellite Maps
  • Weather Map
  • Weather Widgets
  • user-avatar
    Login

    Hourly Weather Les Pavillons-sous-Bois

    Today, 19 April, Friday

    Time Temperature Precipitation Wind Pressure Humidity
    00:00 +15°C° 0 mm 2 mps 760 mmHg 76%
    01:00 +14°C° 0 mm 2 mps 760 mmHg 78%
    02:00 +14°C° 0 mm 2 mps 760 mmHg 79%
    03:00 +13°C° 0 mm 2 mps 761 mmHg 81%
    04:00 +13°C° 0 mm 2 mps 761 mmHg 80%
    05:00 +13°C° 0 mm 2 mps 761 mmHg 80%
    06:00 +13°C° 0 mm 2 mps 762 mmHg 80%
    07:00 +15°C° 0 mm 2 mps 762 mmHg 73%
    08:00 +17°C° 0 mm 2 mps 762 mmHg 67%
    09:00 +19°C° 0 mm 2 mps 763 mmHg 60%
    10:00 +20°C° 0 mm 2 mps 763 mmHg 56%
    11:00 +23°C° 0 mm 2 mps 763 mmHg 51%
    12:00 +24°C° 0 mm 2 mps 763 mmHg 46%
    13:00 +25°C° 0.1 mm 2 mps 763 mmHg 45%
    14:00 +25°C° 0.1 mm 2 mps 762 mmHg 44%
    15:00 +25°C° 0.1 mm 2 mps 762 mmHg 44%
    16:00 +24°C° 0 mm 3 mps 762 mmHg 48%
    17:00 +22°C° 0 mm 3 mps 762 mmHg 52%
    18:00 +21°C° 0 mm 3 mps 762 mmHg 57%
    19:00 +20°C° 0 mm 3 mps 763 mmHg 61%
    20:00 +19°C° 0 mm 2 mps 763 mmHg 65%
    21:00 +17°C° 0 mm 2 mps 763 mmHg 69%
    22:00 +17°C° 0 mm 2 mps 763 mmHg 72%
    23:00 +16°C° 0 mm 2 mps 763 mmHg 75%

    Tomorrow, 20 April, Saturday

    Time Temperature Precipitation Wind Pressure Humidity
    00:00 +15°C° 0 mm 2 mps 763 mmHg 78%
    01:00 +15°C° 0 mm 2 mps 763 mmHg 80%
    02:00 +14°C° 0 mm 2 mps 763 mmHg 82%
    03:00 +14°C° 0 mm 2 mps 763 mmHg 84%
    04:00 +14°C° 0 mm 2 mps 763 mmHg 84%
    05:00 +14°C° 0 mm 2 mps 763 mmHg 84%
    06:00 +13°C° 0 mm 3 mps 763 mmHg 83%
    07:00 +14°C° 0 mm 3 mps 763 mmHg 77%
    08:00 +17°C° 0 mm 3 mps 763 mmHg 71%
    09:00 +19°C° 0 mm 3 mps 764 mmHg 64%
    10:00 +20°C° 0 mm 4 mps 763 mmHg 59%
    11:00 +22°C° 0 mm 4 mps 763 mmHg 54%
    12:00 +23°C° 0 mm 4 mps 763 mmHg 49%
    13:00 +23°C° 0 mm 4 mps 762 mmHg 47%
    14:00 +25°C° 0 mm 4 mps 762 mmHg 45%
    15:00 +25°C° 0 mm 4 mps 762 mmHg 44%
    16:00 +23°C° 0 mm 4 mps 762 mmHg 47%
    17:00 +22°C° 0 mm 4 mps 762 mmHg 51%
    18:00 +21°C° 0 mm 3 mps 762 mmHg 54%
    19:00 +20°C° 0 mm 3 mps 762 mmHg 57%
    20:00 +19°C° 0 mm 3 mps 762 mmHg 60%
    21:00 +18°C° 0 mm 2 mps 762 mmHg 63%
    22:00 +17°C° 0 mm 2 mps 762 mmHg 65%
    23:00 +16°C° 0 mm 2 mps 761 mmHg 68%

    Day after tomorrow, 21 April, Sunday

    Time Temperature Precipitation Wind Pressure Humidity
    00:00 +16°C° 0 mm 2 mps 761 mmHg 70%
    01:00 +15°C° 0 mm 2 mps 761 mmHg 69%
    02:00 +15°C° 0 mm 2 mps 760 mmHg 69%
    03:00 +14°C° 0 mm 2 mps 760 mmHg 69%
    04:00 +14°C° 0 mm 2 mps 760 mmHg 68%
    05:00 +14°C° 0 mm 2 mps 760 mmHg 67%
    06:00 +13°C° 0 mm 2 mps 760 mmHg 66%
    07:00 +15°C° 0 mm 2 mps 759 mmHg 60%
    08:00 +17°C° 0 mm 2 mps 759 mmHg 54%
    09:00 +19°C° 0 mm 2 mps 759 mmHg 48%
    10:00 +20°C° 0 mm 3 mps 758 mmHg 44%
    11:00 +22°C° 0 mm 3 mps 758 mmHg 40%
    12:00 +24°C° 0 mm 3 mps 758 mmHg 36%
    13:00 +24°C° 0 mm 3 mps 757 mmHg 36%
    14:00 +25°C° 0 mm 3 mps 756 mmHg 37%
    15:00 +25°C° 0 mm 4 mps 756 mmHg 37%
    16:00 +24°C° 0 mm 3 mps 755 mmHg 42%
    17:00 +22°C° 0 mm 3 mps 755 mmHg 46%
    18:00 +21°C° 0 mm 3 mps 754 mmHg 51%
    19:00 +20°C° 0 mm 3 mps 754 mmHg 54%
    20:00 +19°C° 0 mm 2 mps 754 mmHg 58%
    21:00 +17°C° 0 mm 2 mps 754 mmHg 61%
    22:00 +17°C° 0 mm 2 mps 754 mmHg 63%
    23:00 +16°C° 0 mm 2 mps 753 mmHg 65%

    22 April, Monday

    Time Temperature Precipitation Wind Pressure Humidity
    00:00 +15°C° 0 mm 2 mps 753 mmHg 66%
    01:00 +15°C° 0 mm 2 mps 752 mmHg 68%
    02:00 +14°C° 0 mm 2 mps 752 mmHg 69%
    03:00 +14°C° 0 mm 2 mps 751 mmHg 71%
    04:00 +14°C° 0 mm 2 mps 751 mmHg 72%
    05:00 +13°C° 0 mm 2 mps 751 mmHg 74%
    06:00 +13°C° 0 mm 2 mps 750 mmHg 75%
    07:00 +15°C° 0 mm 2 mps 750 mmHg 71%
    08:00 +17°C° 0 mm 2 mps 750 mmHg 67%
    09:00 +19°C° 0 mm 2 mps 749 mmHg 64%
    10:00 +20°C° 0 mm 2 mps 749 mmHg 59%
    11:00 +21°C° 0 mm 2 mps 748 mmHg 54%
    12:00 +24°C° 0 mm 3 mps 748 mmHg 49%
    13:00 +24°C° 0.2 mm 3 mps 747 mmHg 47%
    14:00 +24°C° 0.2 mm 3 mps 746 mmHg 46%
    15:00 +24°C° 0.2 mm 3 mps 746 mmHg 44%
    16:00 +22°C° 0.3 mm 3 mps 745 mmHg 49%
    17:00 +22°C° 0.3 mm 3 mps 745 mmHg 53%
    18:00 +21°C° 0.3 mm 3 mps 745 mmHg 58%
    19:00 +20°C° 0 mm 2 mps 745 mmHg 61%
    20:00 +19°C° 0 mm 2 mps 745 mmHg 65%
    21:00 +18°C° 0 mm 1 mps 745 mmHg 69%
    22:00 +18°C° 0 mm 1 mps 744 mmHg 71%
    23:00 +16°C° 0 mm 1 mps 744 mmHg 74%

    23 April, Tuesday

    Time Temperature Precipitation Wind Pressure Humidity
    00:00 +16°C° 0 mm 1 mps 744 mmHg 76%
    01:00 +16°C° 0 mm 1 mps 744 mmHg 77%
    02:00 +15°C° 0 mm 1 mps 743 mmHg 79%
    03:00 +15°C° 0 mm 1 mps 743 mmHg 80%
    04:00 +15°C° 0 mm 1 mps 743 mmHg 80%
    05:00 +15°C° 0 mm 1 mps 743 mmHg 79%
    06:00 +15°C° 0 mm 1 mps 743 mmHg 79%
    07:00 +18°C° 0 mm 1 mps 743 mmHg 73%
    08:00 +19°C° 0 mm 1 mps 743 mmHg 66%
    09:00 +21°C° 0 mm 1 mps 743 mmHg 60%
    10:00 +22°C° 0.1 mm 1 mps 743 mmHg 55%
    11:00 +23°C° 0.1 mm 1 mps 743 mmHg 50%
    12:00 +24°C° 0.1 mm 2 mps 742 mmHg 45%
    13:00 +25°C° 0 mm 2 mps 742 mmHg 44%
    14:00 +25°C° 0 mm 2 mps 742 mmHg 43%
    15:00 +25°C° 0 mm 2 mps 742 mmHg 42%
    16:00 +24°C° 0.5 mm 3 mps 742 mmHg 48%
    17:00 +22°C° 0.5 mm 3 mps 742 mmHg 54%
    18:00 +21°C° 0.5 mm 3 mps 743 mmHg 60%
    19:00 +20°C° 0.3 mm 3 mps 743 mmHg 63%
    20:00 +19°C° 0.3 mm 2 mps 743 mmHg 66%
    21:00 +18°C° 0.3 mm 2 mps 744 mmHg 69%
    22:00 +18°C° 0.8 mm 2 mps 744 mmHg 73%
    23:00 +18°C° 0.8 mm 1 mps 744 mmHg 76%

    24 April, Wednesday

    Time Temperature Precipitation Wind Pressure Humidity
    00:00 +18°C° 0.8 mm 1 mps 745 mmHg 80%
    01:00 +18°C° 0.1 mm 1 mps 745 mmHg 82%
    02:00 +16°C° 0.1 mm 2 mps 745 mmHg 84%
    03:00 +16°C° 0.1 mm 2 mps 745 mmHg 86%
    04:00 +16°C° 0.5 mm 3 mps 745 mmHg 86%
    05:00 +15°C° 0.5 mm 4 mps 745 mmHg 86%
    06:00 +14°C° 0.5 mm 6 mps 745 mmHg 86%
    07:00 +15°C° 0.4 mm 5 mps 746 mmHg 83%
    08:00 +15°C° 0.4 mm 4 mps 746 mmHg 80%
    09:00 +15°C° 0.4 mm 4 mps 746 mmHg 77%
    10:00 +17°C° 0.1 mm 4 mps 747 mmHg 70%
    11:00 +19°C° 0.1 mm 4 mps 747 mmHg 62%
    12:00 +20°C° 0.1 mm 4 mps 747 mmHg 55%
    13:00 +19°C° 0.2 mm 4 mps 747 mmHg 55%
    14:00 +19°C° 0.2 mm 3 mps 747 mmHg 54%
    15:00 +19°C° 0.2 mm 3 mps 747 mmHg 54%
    16:00 +18°C° 0.2 mm 3 mps 747 mmHg 60%
    17:00 +17°C° 0.2 mm 4 mps 747 mmHg 67%
    18:00 +15°C° 0.2 mm 4 mps 747 mmHg 74%
    19:00 +14°C° 0.4 mm 4 mps 747 mmHg 77%
    20:00 +14°C° 0.4 mm 4 mps 747 mmHg 79%
    21:00 +13°C° 0.4 mm 4 mps 747 mmHg 82%
    22:00 +13°C° 0.1 mm 3 mps 747 mmHg 84%
    23:00 +13°C° 0.1 mm 3 mps 747 mmHg 85%
    Show more